Time,TemperatureF,DewpointF,PressureIn,WindDirection,WindDirectionDegrees,WindSpeedMPH,WindSpeedGustMPH,Humidity,HourlyPrecipIn,Conditions,Clouds,dailyrainin,SolarRadiationWatts/m^2,SoftwareType,DateUTC
2013-05-31 00:13:00,74.4,67.0,30.09,West,279,0.0,1.0,77,0.00,,,0.00,0,weatherlink.com 1.10,2013-05-31 04:13:00,
2013-05-31 00:28:00,74.0,67.0,30.09,WNW,288,1.0,2.0,79,0.00,,,0.00,0,weatherlink.com 1.10,2013-05-31 04:28:00,
2013-05-31 00:43:00,73.8,67.0,30.09,WNW,288,0.0,2.0,80,0.00,,,0.00,0,weatherlink.com 1.10,2013-05-31 04:43:00,
2013-05-31 00:58:00,73.5,67.0,30.10,West,268,0.0,1.0,81,0.00,,,0.00,0,weatherlink.com 1.10,2013-05-31 04:58:00,
2013-05-31 01:13:00,73.5,67.0,30.10,WSW,256,0.0,2.0,81,0.00,,,0.00,0,weatherlink.com 1.10,2013-05-31 05:13:00,
2013-05-31 01:27:00,73.4,68.0,30.10,West,275,1.0,4.0,82,0.00,,,0.00,0,weatherlink.com 1.10,2013-05-31 05:27:00,
2013-05-31 01:43:00,72.6,68.0,30.10,West,276,0.0,3.0,84,0.00,,,0.00,0,weatherlink.com 1.10,2013-05-31 05:43:00,
2013-05-31 01:58:00,72.3,67.0,30.10,West,274,0.0,3.0,84,0.00,,,0.00,0,weatherlink.com 1.10,2013-05-31 05:58:00,
2013-05-31 02:13:00,72.2,67.0,30.10,West,261,2.0,4.0,84,0.00,,,0.00,0,weatherlink.com 1.10,2013-05-31 06:13:00,
2013-05-31 02:28:00,72.1,67.0,30.11,West,270,3.0,5.0,84,0.00,,,0.00,0,weatherlink.com 1.10,2013-05-31 06:28:00,
2013-05-31 02:43:00,72.0,67.0,30.11,West,270,2.0,4.0,84,0.00,,,0.00,0,weatherlink.com 1.10,2013-05-31 06:43:00,
2013-05-31 02:58:00,71.9,67.0,30.11,WNW,298,0.0,3.0,83,0.00,,,0.00,0,weatherlink.com 1.10,2013-05-31 06:58:00,
2013-05-31 03:13:00,71.7,67.0,30.10,WNW,296,1.0,3.0,84,0.00,,,0.00,0,weatherlink.com 1.10,2013-05-31 07:13:00,
2013-05-31 03:28:00,71.5,67.0,30.10,WNW,289,2.0,4.0,84,0.00,,,0.00,0,weatherlink.com 1.10,2013-05-31 07:28:00,
2013-05-31 03:43:00,71.3,66.0,30.11,WNW,284,1.0,4.0,84,0.00,,,0.00,0,weatherlink.com 1.10,2013-05-31 07:43:00,
2013-05-31 03:58:00,70.9,66.0,30.10,WNW,302,1.0,3.0,84,0.00,,,0.00,0,weatherlink.com 1.10,2013-05-31 07:58:00,
2013-05-31 04:13:00,70.5,66.0,30.11,West,277,1.0,4.0,84,0.00,,,0.00,0,weatherlink.com 1.10,2013-05-31 08:13:00,
2013-05-31 04:28:00,70.2,66.0,30.11,West,279,1.0,4.0,85,0.00,,,0.00,0,weatherlink.com 1.10,2013-05-31 08:28:00,
2013-05-31 04:43:00,69.9,65.0,30.11,West,264,1.0,3.0,85,0.00,,,0.00,0,weatherlink.com 1.10,2013-05-31 08:43:00,
2013-05-31 04:58:00,69.8,65.0,30.11,West,265,1.0,2.0,85,0.00,,,0.00,0,weatherlink.com 1.10,2013-05-31 08:58:00,
2013-05-31 05:13:00,69.9,65.0,30.11,WNW,285,2.0,4.0,84,0.00,,,0.00,7,weatherlink.com 1.10,2013-05-31 09:13:00,
2013-05-31 05:28:00,69.9,65.0,30.11,West,281,1.0,5.0,84,0.00,,,0.00,16,weatherlink.com 1.10,2013-05-31 09:28:00,
2013-05-31 05:43:00,70.0,65.0,30.12,West,277,0.0,1.0,84,0.00,,,0.00,30,weatherlink.com 1.10,2013-05-31 09:43:00,
2013-05-31 05:58:00,70.3,65.0,30.12,West,275,1.0,2.0,84,0.00,,,0.00,56,weatherlink.com 1.10,2013-05-31 09:58:00,
2013-05-31 06:13:00,70.8,65.0,30.13,West,271,2.0,3.0,83,0.00,,,0.00,95,weatherlink.com 1.10,2013-05-31 10:13:00,
2013-05-31 06:28:00,71.4,66.0,30.13,West,272,1.0,3.0,82,0.00,,,0.00,134,weatherlink.com 1.10,2013-05-31 10:28:00,
2013-05-31 06:43:00,72.5,66.0,30.13,West,269,0.0,2.0,80,0.00,,,0.00,186,weatherlink.com 1.10,2013-05-31 10:43:00,
2013-05-31 07:02:00,73.5,66.0,30.13,West,277,2.0,4.0,78,0.00,,,0.00,227,weatherlink.com 1.10,2013-05-31 11:02:00,
2013-05-31 07:13:00,74.7,67.0,30.14,West,269,1.0,2.0,76,0.00,,,0.00,272,weatherlink.com 1.10,2013-05-31 11:13:00,
2013-05-31 07:28:00,76.0,66.0,30.14,West,273,0.0,4.0,72,0.00,,,0.00,320,weatherlink.com 1.10,2013-05-31 11:28:00,
2013-05-31 07:43:00,77.4,66.0,30.14,West,268,4.0,5.0,69,0.00,,,0.00,366,weatherlink.com 1.10,2013-05-31 11:43:00,
2013-05-31 07:58:00,78.9,67.0,30.14,WNW,285,0.0,5.0,68,0.00,,,0.00,408,weatherlink.com 1.10,2013-05-31 11:58:00,
2013-05-31 08:13:00,79.9,67.0,30.14,WNW,285,2.0,5.0,64,0.00,,,0.00,446,weatherlink.com 1.10,2013-05-31 12:13:00,
2013-05-31 08:28:00,81.6,68.0,30.14,WSW,249,2.0,7.0,63,0.00,,,0.00,489,weatherlink.com 1.10,2013-05-31 12:28:00,
2013-05-31 08:43:00,82.6,68.0,30.14,West,269,3.0,5.0,61,0.00,,,0.00,527,weatherlink.com 1.10,2013-05-31 12:43:00,
2013-05-31 08:58:00,83.3,68.0,30.14,WSW,258,5.0,6.0,61,0.00,,,0.00,571,weatherlink.com 1.10,2013-05-31 12:58:00,
2013-05-31 09:13:00,84.3,69.0,30.13,WNW,294,3.0,6.0,60,0.00,,,0.00,613,weatherlink.com 1.10,2013-05-31 13:13:00,
2013-05-31 09:28:00,85.1,69.0,30.12,West,276,2.0,9.0,58,0.00,,,0.00,650,weatherlink.com 1.10,2013-05-31 13:28:00,
2013-05-31 09:44:00,86.1,69.0,30.12,WNW,294,2.0,9.0,56,0.00,,,0.00,691,weatherlink.com 1.10,2013-05-31 13:44:00,
2013-05-31 09:59:00,86.9,69.0,30.12,West,277,6.0,8.0,56,0.00,,,0.00,719,weatherlink.com 1.10,2013-05-31 13:59:00,
2013-05-31 10:14:00,87.4,69.0,30.11,WNW,298,2.0,10.0,54,0.00,,,0.00,751,weatherlink.com 1.10,2013-05-31 14:14:00,
2013-05-31 10:29:00,88.2,70.0,30.11,West,281,3.0,8.0,55,0.00,,,0.00,777,weatherlink.com 1.10,2013-05-31 14:29:00,
2013-05-31 10:44:00,89.3,68.0,30.11,WNW,284,3.0,8.0,50,0.00,,,0.00,807,weatherlink.com 1.10,2013-05-31 14:44:00,
2013-05-31 10:59:00,90.0,68.0,30.10,West,259,4.0,7.0,48,0.00,,,0.00,833,weatherlink.com 1.10,2013-05-31 14:59:00,
2013-05-31 11:14:00,89.9,66.0,30.10,West,264,3.0,11.0,46,0.00,,,0.00,858,weatherlink.com 1.10,2013-05-31 15:14:00,
2013-05-31 11:29:00,90.0,66.0,30.10,West,278,1.0,13.0,45,0.00,,,0.00,849,weatherlink.com 1.10,2013-05-31 15:29:00,
2013-05-31 11:44:00,90.8,66.0,30.09,West,275,6.0,10.0,44,0.00,,,0.00,891,weatherlink.com 1.10,2013-05-31 15:44:00,
2013-05-31 11:59:00,91.0,67.0,30.09,WSW,243,1.0,8.0,46,0.00,,,0.00,153,weatherlink.com 1.10,2013-05-31 15:59:00,
2013-05-31 12:14:00,91.3,65.0,30.09,West,279,6.0,11.0,42,0.00,,,0.00,200,weatherlink.com 1.10,2013-05-31 16:14:00,
2013-05-31 12:29:00,91.4,66.0,30.08,WNW,293,8.0,11.0,43,0.00,,,0.00,171,weatherlink.com 1.10,2013-05-31 16:29:00,
2013-05-31 12:44:00,91.8,66.0,30.08,SW,233,5.0,9.0,43,0.00,,,0.00,951,weatherlink.com 1.10,2013-05-31 16:44:00,
2013-05-31 12:59:00,93.5,66.0,30.07,SSW,212,4.0,7.0,40,0.00,,,0.00,974,weatherlink.com 1.10,2013-05-31 16:59:00,
2013-05-31 13:14:00,93.2,65.0,30.07,West,271,6.0,13.0,39,0.00,,,0.00,993,weatherlink.com 1.10,2013-05-31 17:14:00,
2013-05-31 13:29:00,92.8,65.0,30.06,WSW,241,3.0,14.0,40,0.00,,,0.00,891,weatherlink.com 1.10,2013-05-31 17:29:00,
2013-05-31 13:44:00,93.8,65.0,30.05,NW,304,4.0,11.0,38,0.00,,,0.00,911,weatherlink.com 1.10,2013-05-31 17:44:00,
2013-05-31 13:59:00,94.3,64.0,30.05,SW,228,4.0,10.0,37,0.00,,,0.00,833,weatherlink.com 1.10,2013-05-31 17:59:00,
2013-05-31 14:14:00,94.0,64.0,30.04,SSW,201,4.0,11.0,37,0.00,,,0.00,893,weatherlink.com 1.10,2013-05-31 18:14:00,
2013-05-31 14:29:00,93.7,64.0,30.04,West,271,7.0,13.0,37,0.00,,,0.00,135,weatherlink.com 1.10,2013-05-31 18:29:00,
2013-05-31 14:44:00,94.5,64.0,30.04,West,267,5.0,9.0,37,0.00,,,0.00,837,weatherlink.com 1.10,2013-05-31 18:44:00,
2013-05-31 14:59:00,93.8,64.0,30.03,NW,317,2.0,11.0,37,0.00,,,0.00,823,weatherlink.com 1.10,2013-05-31 18:59:00,
2013-05-31 15:14:00,95.1,64.0,30.03,West,264,1.0,9.0,36,0.00,,,0.00,745,weatherlink.com 1.10,2013-05-31 19:14:00,
2013-05-31 15:29:00,94.3,64.0,30.02,WSW,243,4.0,13.0,37,0.00,,,0.00,780,weatherlink.com 1.10,2013-05-31 19:29:00,
2013-05-31 15:45:00,94.5,64.0,30.02,WSW,238,6.0,13.0,37,0.00,,,0.00,199,weatherlink.com 1.10,2013-05-31 19:45:00,
2013-05-31 16:00:00,93.7,63.0,30.02,WNW,294,7.0,16.0,36,0.00,,,0.00,742,weatherlink.com 1.10,2013-05-31 20:00:00,
2013-05-31 16:15:00,93.7,64.0,30.02,WNW,286,5.0,13.0,38,0.00,,,0.00,633,weatherlink.com 1.10,2013-05-31 20:15:00,
2013-05-31 16:30:00,94.4,64.0,30.01,WSW,243,2.0,17.0,36,0.00,,,0.00,587,weatherlink.com 1.10,2013-05-31 20:30:00,
2013-05-31 16:45:00,95.0,63.0,30.01,West,261,6.0,11.0,35,0.00,,,0.00,534,weatherlink.com 1.10,2013-05-31 20:45:00,
2013-05-31 17:00:00,95.0,63.0,30.00,West,279,5.0,9.0,35,0.00,,,0.00,475,weatherlink.com 1.10,2013-05-31 21:00:00,
2013-05-31 17:15:00,94.9,63.0,30.00,WSW,250,4.0,10.0,35,0.00,,,0.00,459,weatherlink.com 1.10,2013-05-31 21:15:00,
2013-05-31 17:30:00,95.1,63.0,29.99,SW,223,6.0,13.0,34,0.00,,,0.00,397,weatherlink.com 1.10,2013-05-31 21:30:00,
2013-05-31 17:45:00,94.4,63.0,29.99,WSW,241,6.0,11.0,35,0.00,,,0.00,352,weatherlink.com 1.10,2013-05-31 21:45:00,
2013-05-31 18:00:00,94.0,63.0,29.98,West,269,6.0,13.0,36,0.00,,,0.00,299,weatherlink.com 1.10,2013-05-31 22:00:00,
2013-05-31 18:15:00,93.6,64.0,29.98,SW,232,6.0,12.0,38,0.00,,,0.00,251,weatherlink.com 1.10,2013-05-31 22:15:00,
2013-05-31 18:30:00,92.7,66.0,29.98,SW,235,4.0,8.0,41,0.00,,,0.00,213,weatherlink.com 1.10,2013-05-31 22:30:00,
2013-05-31 18:45:00,92.5,66.0,29.98,SW,214,3.0,8.0,42,0.00,,,0.00,162,weatherlink.com 1.10,2013-05-31 22:45:00,
2013-05-31 19:00:00,92.0,66.0,29.98,WSW,249,4.0,9.0,43,0.00,,,0.00,118,weatherlink.com 1.10,2013-05-31 23:00:00,
2013-05-31 19:15:00,90.6,68.0,29.98,West,261,3.0,14.0,47,0.00,,,0.00,81,weatherlink.com 1.10,2013-05-31 23:15:00,
2013-05-31 19:30:00,89.6,67.0,29.98,West,277,6.0,9.0,48,0.00,,,0.00,46,weatherlink.com 1.10,2013-05-31 23:30:00,
2013-05-31 19:45:00,88.8,67.0,29.98,WSW,254,5.0,12.0,49,0.00,,,0.00,25,weatherlink.com 1.10,2013-05-31 23:45:00,
2013-05-31 20:00:00,87.9,67.0,29.99,WSW,246,8.0,12.0,50,0.00,,,0.00,12,weatherlink.com 1.10,2013-06-01 00:00:00,
2013-05-31 20:15:00,87.2,67.0,29.99,SSW,209,7.0,9.0,51,0.00,,,0.00,0,weatherlink.com 1.10,2013-06-01 00:15:00,
2013-05-31 20:30:00,86.5,67.0,30.00,WSW,254,2.0,8.0,52,0.00,,,0.00,0,weatherlink.com 1.10,2013-06-01 00:30:00,
2013-05-31 20:45:00,85.8,67.0,30.00,SW,232,3.0,7.0,53,0.00,,,0.00,0,weatherlink.com 1.10,2013-06-01 00:45:00,
2013-05-31 21:00:00,85.2,67.0,30.01,WNW,291,3.0,8.0,55,0.00,,,0.00,0,weatherlink.com 1.10,2013-06-01 01:00:00,
2013-05-31 21:15:00,84.5,67.0,30.01,West,267,4.0,8.0,56,0.00,,,0.00,0,weatherlink.com 1.10,2013-06-01 01:15:00,
2013-05-31 21:30:00,83.9,67.0,30.02,WSW,243,4.0,7.0,58,0.00,,,0.00,0,weatherlink.com 1.10,2013-06-01 01:30:00,
2013-05-31 21:45:00,83.3,68.0,30.02,West,281,4.0,8.0,60,0.00,,,0.00,0,weatherlink.com 1.10,2013-06-01 01:45:00,
2013-05-31 22:00:00,82.7,68.0,30.02,WNW,282,2.0,7.0,61,0.00,,,0.00,0,weatherlink.com 1.10,2013-06-01 02:00:00,
2013-05-31 22:15:00,82.2,68.0,30.02,WSW,255,3.0,7.0,62,0.00,,,0.00,0,weatherlink.com 1.10,2013-06-01 02:15:00,
2013-05-31 22:30:00,81.6,68.0,30.03,SW,222,2.0,6.0,63,0.00,,,0.00,0,weatherlink.com 1.10,2013-06-01 02:30:00,
2013-05-31 22:45:00,81.2,67.0,30.02,West,271,4.0,8.0,63,0.00,,,0.00,0,weatherlink.com 1.10,2013-06-01 02:45:00,
2013-05-31 23:00:00,80.8,67.0,30.02,South,186,1.0,7.0,63,0.00,,,0.00,0,weatherlink.com 1.10,2013-06-01 03:00:00,
2013-05-31 23:15:00,80.3,67.0,30.02,West,267,3.0,8.0,63,0.00,,,0.00,0,weatherlink.com 1.10,2013-06-01 03:15:00,
2013-05-31 23:30:00,80.0,66.0,30.03,West,266,3.0,7.0,63,0.00,,,0.00,0,weatherlink.com 1.10,2013-06-01 03:30:00,
2013-05-31 23:45:00,79.6,66.0,30.03,West,260,4.0,6.0,63,0.00,,,0.00,0,weatherlink.com 1.10,2013-06-01 03:45:00,